Meteo pe oră la Dabrowki

Astăzi, 14 Aprilie, Miercuri

Timp Temperatura Precipitaţii Vânt Presiune Umiditate
00:00 -1°C° 0.5 mm 4 m/s 742 mmHg 93%
01:00 -1°C° 0 mm 4 m/s 741 mmHg 94%
02:00 -1°C° 0.8 mm 4 m/s 741 mmHg 95%
03:00 -1°C° 0.8 mm 4 m/s 741 mmHg 97%
04:00 -1°C° 0.8 mm 4 m/s 741 mmHg 98%
05:00 -1°C° 0.8 mm 4 m/s 741 mmHg 98%
06:00 -1°C° 0.8 mm 4 m/s 741 mmHg 98%
07:00 -1°C° 0 mm 4 m/s 742 mmHg 99%
08:00 -1°C° 0.4 mm 5 m/s 742 mmHg 97%
09:00 -1°C° 0.4 mm 5 m/s 742 mmHg 95%
10:00 -1°C° 0.4 mm 5 m/s 742 mmHg 93%
11:00 0°C° 0.2 mm 5 m/s 742 mmHg 91%
12:00 0°C° 0.2 mm 5 m/s 741 mmHg 89%
13:00 -1°C° 0.2 mm 6 m/s 741 mmHg 87%
14:00 +1°C° 0.2 mm 5 m/s 741 mmHg 87%
15:00 +1°C° 0.2 mm 5 m/s 741 mmHg 86%
16:00 +1°C° 0.2 mm 5 m/s 741 mmHg 86%
17:00 +1°C° 0.1 mm 5 m/s 741 mmHg 90%
18:00 0°C° 0.1 mm 4 m/s 741 mmHg 93%
19:00 0°C° 0.1 mm 4 m/s 741 mmHg 96%
20:00 0°C° 0.2 mm 4 m/s 741 mmHg 97%
21:00 0°C° 0.2 mm 4 m/s 741 mmHg 97%
22:00 0°C° 0.2 mm 4 m/s 741 mmHg 97%
23:00 -1°C° 0.4 mm 5 m/s 740 mmHg 97%

Mâine, 15 Aprilie, Joi

Timp Temperatura Precipitaţii Vânt Presiune Umiditate
00:00 -1°C° 0.4 mm 5 m/s 740 mmHg 97%
01:00 -1°C° 0.4 mm 5 m/s 740 mmHg 97%
02:00 -1°C° 0.4 mm 5 m/s 740 mmHg 97%
03:00 -2°C° 0.4 mm 5 m/s 740 mmHg 98%
04:00 -2°C° 0.4 mm 5 m/s 740 mmHg 98%
05:00 -2°C° 0.6 mm 5 m/s 740 mmHg 98%
06:00 -2°C° 0.6 mm 5 m/s 740 mmHg 98%
07:00 -2°C° 0.6 mm 5 m/s 740 mmHg 98%
08:00 -2°C° 0.6 mm 5 m/s 740 mmHg 98%
09:00 -2°C° 0.6 mm 5 m/s 740 mmHg 99%
10:00 -1°C° 0.6 mm 5 m/s 740 mmHg 99%
11:00 -1°C° 0.5 mm 5 m/s 740 mmHg 99%
12:00 -1°C° 0.5 mm 4 m/s 740 mmHg 99%
13:00 -1°C° 0.5 mm 4 m/s 740 mmHg 99%
14:00 -1°C° 0.3 mm 4 m/s 739 mmHg 99%
15:00 -1°C° 0.3 mm 4 m/s 739 mmHg 99%
16:00 -1°C° 0.3 mm 4 m/s 739 mmHg 99%
17:00 -1°C° 0.1 mm 4 m/s 739 mmHg 99%
18:00 0°C° 0.1 mm 3 m/s 739 mmHg 98%
19:00 -1°C° 0.1 mm 3 m/s 740 mmHg 98%
20:00 -1°C° 0.1 mm 3 m/s 739 mmHg 98%
21:00 -1°C° 0.1 mm 3 m/s 739 mmHg 98%
22:00 -1°C° 0.1 mm 3 m/s 739 mmHg 98%
23:00 -1°C° 0.1 mm 3 m/s 739 mmHg 98%

Poimâine, 16 Aprilie, Vineri

Timp Temperatura Precipitaţii Vânt Presiune Umiditate
00:00 -1°C° 0.1 mm 3 m/s 739 mmHg 98%
01:00 -1°C° 0.1 mm 3 m/s 739 mmHg 98%
02:00 0°C° 0.1 mm 3 m/s 739 mmHg 98%
03:00 0°C° 0.1 mm 3 m/s 739 mmHg 98%
04:00 -1°C° 0.1 mm 4 m/s 739 mmHg 98%
05:00 -1°C° 0.2 mm 4 m/s 739 mmHg 99%
06:00 -1°C° 0.2 mm 4 m/s 739 mmHg 99%
07:00 -1°C° 0.2 mm 4 m/s 739 mmHg 99%
08:00 -1°C° 0.2 mm 4 m/s 739 mmHg 99%
09:00 0°C° 0.2 mm 3 m/s 739 mmHg 99%
10:00 0°C° 0.2 mm 3 m/s 739 mmHg 99%
11:00 0°C° 0.1 mm 3 m/s 739 mmHg 99%
12:00 +1°C° 0.1 mm 3 m/s 740 mmHg 99%
13:00 0°C° 0.1 mm 4 m/s 740 mmHg 99%
14:00 +1°C° 0.3 mm 3 m/s 740 mmHg 99%
15:00 +1°C° 0.3 mm 3 m/s 740 mmHg 99%
16:00 +1°C° 0.3 mm 3 m/s 740 mmHg 99%
17:00 +1°C° 0.5 mm 3 m/s 740 mmHg 99%
18:00 +1°C° 0.5 mm 3 m/s 740 mmHg 99%
19:00 +1°C° 0.5 mm 3 m/s 740 mmHg 99%
20:00 +1°C° 0.2 mm 3 m/s 740 mmHg 99%
21:00 +1°C° 0.2 mm 3 m/s 740 mmHg 99%
22:00 +1°C° 0.2 mm 3 m/s 740 mmHg 99%
23:00 +1°C° 0.2 mm 3 m/s 740 mmHg 99%

17 Aprilie, Sâmbătă

Timp Temperatura Precipitaţii Vânt Presiune Umiditate
00:00 +1°C° 0.2 mm 3 m/s 740 mmHg 99%
01:00 +1°C° 0.2 mm 3 m/s 740 mmHg 99%
02:00 +1°C° 0.3 mm 3 m/s 740 mmHg 99%
03:00 +1°C° 0.3 mm 3 m/s 740 mmHg 99%
04:00 +1°C° 0.3 mm 3 m/s 740 mmHg 99%
05:00 +2°C° 0.5 mm 3 m/s 740 mmHg 99%
06:00 +2°C° 0.5 mm 3 m/s 739 mmHg 99%
07:00 +3°C° 0.5 mm 2 m/s 739 mmHg 99%
08:00 +3°C° 0.3 mm 2 m/s 739 mmHg 99%
09:00 +4°C° 0.3 mm 2 m/s 739 mmHg 99%
10:00 +4°C° 0.3 mm 2 m/s 740 mmHg 99%
11:00 +5°C° 0.1 mm 2 m/s 740 mmHg 98%
12:00 +6°C° 0.1 mm 1 m/s 740 mmHg 96%
13:00 +7°C° 0.1 mm 1 m/s 740 mmHg 95%
14:00 +7°C° 0.1 mm 1 m/s 740 mmHg 95%
15:00 +7°C° 0.1 mm 1 m/s 740 mmHg 96%
16:00 +8°C° 0.1 mm 1 m/s 739 mmHg 96%
17:00 +7°C° 0 mm 1 m/s 740 mmHg 96%
18:00 +7°C° 0 mm 1 m/s 740 mmHg 96%
19:00 +7°C° 0 mm 1 m/s 740 mmHg 97%
20:00 +6°C° 0 mm 1 m/s 740 mmHg 97%
21:00 +6°C° 0 mm 1 m/s 740 mmHg 97%
22:00 +6°C° 0 mm 1 m/s 740 mmHg 97%
23:00 +6°C° 0 mm 1 m/s 740 mmHg 98%

18 Aprilie, Duminică

Timp Temperatura Precipitaţii Vânt Presiune Umiditate
00:00 +6°C° 0 mm 1 m/s 740 mmHg 98%
01:00 +5°C° 0 mm 2 m/s 740 mmHg 98%
02:00 +4°C° 0 mm 2 m/s 740 mmHg 98%
03:00 +4°C° 0 mm 2 m/s 740 mmHg 98%
04:00 +4°C° 0 mm 2 m/s 740 mmHg 98%
05:00 +4°C° 0 mm 2 m/s 740 mmHg 95%
06:00 +4°C° 0 mm 3 m/s 740 mmHg 91%
07:00 +4°C° 0 mm 3 m/s 740 mmHg 88%
08:00 +5°C° 0 mm 3 m/s 740 mmHg 83%
09:00 +8°C° 0 mm 3 m/s 740 mmHg 77%
10:00 +8°C° 0 mm 4 m/s 740 mmHg 71%
11:00 +8°C° 0 mm 4 m/s 740 mmHg 70%
12:00 +8°C° 0 mm 4 m/s 740 mmHg 69%
13:00 +10°C° 0 mm 3 m/s 740 mmHg 68%
14:00 +10°C° 0 mm 3 m/s 740 mmHg 70%
15:00 +10°C° 0 mm 3 m/s 740 mmHg 71%
16:00 +10°C° 0 mm 3 m/s 740 mmHg 72%
17:00 +9°C° 0 mm 3 m/s 740 mmHg 75%
18:00 +9°C° 0 mm 3 m/s 740 mmHg 78%
19:00 +8°C° 0 mm 3 m/s 740 mmHg 81%
20:00 +8°C° 0 mm 2 m/s 740 mmHg 82%
21:00 +8°C° 0 mm 2 m/s 740 mmHg 83%
22:00 +7°C° 0 mm 2 m/s 740 mmHg 83%
23:00 +7°C° 0 mm 2 m/s 740 mmHg 84%

19 Aprilie, Luni

Timp Temperatura Precipitaţii Vânt Presiune Umiditate
00:00 +7°C° 0 mm 2 m/s 740 mmHg 85%
01:00 +7°C° 0 mm 2 m/s 740 mmHg 86%
02:00 +7°C° 0.1 mm 2 m/s 739 mmHg 88%
03:00 +7°C° 0.1 mm 2 m/s 739 mmHg 90%
04:00 +6°C° 0.1 mm 2 m/s 739 mmHg 91%
05:00 +7°C° 0.2 mm 2 m/s 739 mmHg 92%
06:00 +7°C° 0.2 mm 3 m/s 739 mmHg 92%
07:00 +7°C° 0.2 mm 3 m/s 739 mmHg 92%
08:00 +6°C° 0.3 mm 4 m/s 739 mmHg 92%
09:00 +6°C° 0.3 mm 4 m/s 739 mmHg 92%
10:00 +6°C° 0.3 mm 5 m/s 739 mmHg 92%
11:00 +6°C° 0.4 mm 5 m/s 739 mmHg 92%
12:00 +6°C° 0.4 mm 5 m/s 739 mmHg 92%
13:00 +6°C° 0.4 mm 5 m/s 738 mmHg 92%
14:00 +6°C° 0.1 mm 5 m/s 738 mmHg 92%
15:00 +6°C° 0.1 mm 4 m/s 738 mmHg 93%
16:00 +7°C° 0.1 mm 4 m/s 738 mmHg 93%
17:00 +6°C° 0 mm 4 m/s 738 mmHg 93%
18:00 +6°C° 0 mm 4 m/s 738 mmHg 94%
19:00 +7°C° 0 mm 3 m/s 738 mmHg 95%
20:00 +7°C° 0 mm 3 m/s 738 mmHg 95%
21:00 +7°C° 0 mm 3 m/s 738 mmHg 94%
22:00 +7°C° 0 mm 3 m/s 738 mmHg 94%
23:00 +7°C° 0 mm 3 m/s 737 mmHg 94%
Arată mai mult

Formular de consimțământ

Meteoprog și furnizorii noștri de servicii pot stoca și accesa date personale, precum cookies, identificatori de dispozitiv sau alte tehnologii similare pe dispozitivul dumneavoastră și procesa astfel de date pentru a personaliza conținutul și reclamele, dar și pentru a oferi caracteristici de social media și pentru a analiza traficul.

  • Stocarea și/sau accesarea informațiilor pe dispozitivul dumneavoastră

    Cookies, identificatori de dispozitiv sau alte informații pot fi stocate sau accesate pe dispozitiv în scopurile indicate mai sus.

  • Reclame și conținut personalizat, evaluarea reclamelor și a conținutului, informații despre audiențe și dezvoltarea produselor

    Reclamele și conținutul pot fi personalizate pe baza unui profil. Pot fi adăugate date suplimentare pentru a personaliza mai bine reclamele și conținutul. Performanța reclamelor și conținutului poate fi măsurată. Pot fi obținute informații despre utilizatorii care au văzut reclamele și conținutul. Aceste date pot fi utilizate pentru a dezvolta sau îmbunătăți experiența utilizatorilor, sistemele și software-ul.

Dând clic pe ‘Sunt de acord’, permiteți utilizarea cookie-urilor menționate, a identificatorilor de dispozitiv, balizelor web sau altor tehnologii similare. Setările pot fi modificate din browser-ul dispozitivului dumneavoastră.

În anumite scopuri, interesele legitime pot prima asupra consimțământului. Puteți citi mai multe informații în acest sens în Politica privind Confidențialitatea Datelor și Cookie.